Regional Weather Roundup
Issued by NWS

Home | Current Version | Previous Version | Text Only | Print | Product List | Glossary Off
Versions: 1 2 3 4 5 6 7 8 9 10 11 12 13 14 15 16 17 18 19 20 21 22 23 24 25 26 27 28 29 30 31 32 33 34 35 36 37 38 39 40 41 42 43 44 45 46 47 48 49 50

769
ASUS44 KJAN 252003
RWRMS

MISSISSIPPI HOURLY WEATHER ROUNDUP
NATIONAL WEATHER SERVICE JACKSON MS
200 PM CST TUE NOV 25 2014

NOTE: "FAIR: INDICATES FEW OR NO CLOUDS BELOW 12,000 FEET WITH NO
SIGNIFICANT WEATHER AND/OR OBSTRUCTIONS TO VISIBILITY.

MSZ001>002-007>008-010>013-018>021-025>028-034>036-252100-
NORTHWEST MISSISSIPPI

CITY           SKY/WX    TMP DP  RH WIND       PRES   REMARKS
CLARKSDALE     FAIR      46  27  46 NW7       30.20F
CLEVELAND      FAIR      49  23  36 N7        30.19F
GREENWOOD      CLOUDY    50  24  36 NW7       30.18F
GREENVILLE     CLOUDY    51  20  29 NW7       30.19F
GRENADA        FAIR      48  21  34 CALM      30.17F
OLIVE BRANCH   PTSUNNY   46  23  39 W6        30.16F
OXFORD         FAIR      46  18  31 NW7       30.17F
TUNICA         MOCLDY    48  27  43 CALM      30.19F
$$

MSZ003>006-009-014>017-022>024-029>033-037>039-252100-
NORTHEAST MISSISSIPPI

CITY           SKY/WX    TMP DP  RH WIND       PRES   REMARKS
COLUMBUS AFB   CLOUDY    50  28  42 NW8       30.14F
CORINTH        FAIR      50  27  40 N7        30.15F
GOLDN TRIANGLE PTSUNNY   52  30  43 NW9       30.13F
STARKVILLE     FAIR      50  30  46 NW7       30.14F
TUPELO         CLOUDY    50  28  42 NE3       30.13F
$$

MSZ040-058-252100-
CENTRAL MISSISSIPPI

CITY           SKY/WX    TMP DP  RH WIND       PRES   REMARKS
JACKSON INTL   CLOUDY    52  25  35 NW8       30.16F
JACKSON HAWKNS CLOUDY    51  22  31 N8        30.17F
MERIDIAN KEY   CLOUDY    55  27  34 N10       30.11F
MERIDIAN NAS   PTSUNNY   55  27  34 N13       30.11F
RAYMOND        FAIR      50  46  87 NW10G16   30.17F
VICKSBURG      CLOUDY    52  25  35 N8        30.20F
$$

MSZ059>079-252100-
SOUTH MISSISSIPPI

CITY           SKY/WX    TMP DP  RH WIND       PRES   REMARKS
BROOKHAVEN     FAIR      50  30  46 N8        30.17S
COLUMBIA       FAIR      54  30  40 MISG        N/A
HATTIESBURG    CLOUDY    57  31  37 N8        30.11F
MCCOMB         CLOUDY    53  27  36 NW14      30.14F
NATCHEZ        CLOUDY    52  28  40 N9        30.19S
PINE BELT      CLOUDY    54  28  37 NW10      30.12S
$$

MSZ080>082-252100-
COASTAL MISSISSIPPI

CITY           SKY/WX    TMP DP  RH WIND       PRES   REMARKS
BAY ST LOUIS   PTSUNNY   55  30  38 N12       30.09F
BILOXI         CLOUDY    59  32  35 N12G22    30.06F
PASCAGOULA     CLOUDY    60  30  32 N13       30.06S
GULFPORT       PTSUNNY   57  33  40 N15       30.06F
$$



USA.gov is the U.S. government's official web portal to all federal, state and local government web resources and services.